Temp
-11 -13 -13 -14 -14 -14 -14 -13 -14 -14 -14 -14 -14 -14 -14 -14 -14 -14 -14 -14 -14 -14 -13 -13 -13 -13 -13 -13 -13 -13 -14 -14 -15 -15 -14 -14 -14 -14 -14 -14 -14 -14 -14
-12 -13 -13 -13 -13 -13 -14 -14 -14 -14 -14 -14 -14 -14 -14 -14 -15 -15 -14 -14 -15 -14 -14 -14 -14 -14 -13 -13 -14 -14 -14 -15 -15 -14 -15 -15 -15 -14 -14 -14 -14 -14 -14
-12 -13 -14 -14 -14 -13 -14 -14 -14 -14 -14 -15 -15 -14 -14 -14 -15 -15 -15 -14 -15 -15 -14 -14 -14 -13 -14 -14 -14 -14 -14 -14 -14 -15 -15 -15 -15 -15 -15 -14 -14 -14 -14
-13 -13 -13 -13 -13 -13 -13 -14 -14 -14 -14 -15 -15 -15 -15 -15 -15 -15 -15 -15 -15 -15 -15 -14 -14 -14 -14 -14 -14 -14 -14 -14 -15 -14 -14 -15 -15 -15 -15 -14 -14 -14 -14
-13 -13 -14 -14 -13 -13 -13 -14 -14 -14 -14 -14 -15 -15 -15 -15 -15 -15 -15 -15 -15 -15 -15 -15 -15 -14 -14 -14 -14 -14 -14 -15 -15 -14 -14 -14 -14 -15 -14 -14 -14 -14 -14
-13 -13 -13 -14 -13 -13 -13 -13 -13 -13 -13 -14 -15 -15 -15 -15 -15 -15 -15 -16 -15 -15 -15 -15 -15 -15 -14 -15 -15 -15 -15 -15 -14 -14 -14 -15 -15 -15 -14 -14 -14 -14 -15
-13 -13 -13 -14 -14 -14 -13 -13 -13 -12 -13 -14 -15 -16 -15 -15 -15 -15 -15 -16 -16 -16 -15 -15 -15 -15 -15 -15 -15 -15 -15 -15 -15 -15 -15 -15 -14 -15 -15 -14 -15 -15 -15
-13 -13 -13 -14 -14 -14 -14 -14 -14 -13 -13 -13 -14 -15 -15 -16 -15 -15 -16 -16 -16 -16 -15 -15 -15 -15 -15 -15 -15 -15 -15 -15 -15 -15 -15 -15 -15 -15 -15 -15 -15 -15 -15
-14 -14 -14 -14 -14 -14 -14 -14 -14 -14 -14 -13 -14 -15 -15 -15 -16 -16 -16 -16 -16 -16 -15 -15 -15 -15 -15 -15 -16 -16 -16 -16 -16 -15 -15 -15 -15 -15 -15 -15 -15 -15 -15
-15 -14 -13 -14 -15 -15 -14 -14 -14 -14 -14 -13 -14 -14 -15 -15 -16 -16 -16 -16 -16 -15 -15 -16 -16 -16 -16 -16 -16 -16 -16 -16 -15 -16 -16 -16 -16 -16 -16 -16 -16 -15 -15
-15 -15 -15 -14 -15 -14 -14 -14 -14 -14 -14 -14 -14 -15 -15 -15 -16 -16 -16 -16 -16 -16 -16 -16 -16 -16 -16 -16 -16 -17 -16 -16 -16 -16 -16 -16 -16 -16 -16 -16 -16 -16 -16
-16 -16 -16 -15 -15 -15 -15 -14 -15 -15 -15 -14 -14 -15 -15 -15 -16 -17 -17 -17 -17 -16 -16 -16 -16 -16 -16 -16 -16 -16 -17 -16 -16 -16 -16 -16 -16 -16 -16 -16 -16 -16 -16
-16 -17 -16 -15 -16 -15 -16 -15 -16 -15 -16 -15 -15 -15 -15 -16 -16 -17 -17 -17 -17 -17 -16 -16 -16 -16 -16 -17 -17 -16 -17 -16 -16 -16 -16 -16 -17 -17 -17 -17 -17 -17 -17
-17 -17 -16 -16 -16 -16 -17 -17 -16 -16 -15 -16 -15 -15 -15 -16 -15 -16 -17 -17 -17 -17 -17 -17 -17 -17 -16 -16 -16 -16 -16 -17 -16 -16 -16 -17 -17 -17 -17 -17 -17 -17 -17
-17 -16 -16 -17 -17 -17 -18 -17 -17 -16 -16 -15 -16 -16 -16 -15 -17 -15 -16 -17 -17 -17 -17 -17 -17 -17 -16 -16 -16 -16 -16 -17 -17 -17 -17 -17 -17 -17 -17 -17 -18 -17 -18
-18 -18 -17 -17 -18 -18 -18 -17 -17 -17 -17 -16 -16 -16 -16 -16 -16 -16 -16 -16 -16 -17 -17 -17 -17 -17 -16 -16 -16 -16 -17 -17 -17 -18 -17 -18 -18 -18 -18 -18 -18 -18 -19
-18 -18 -18 -17 -17 -17 -18 -17 -17 -18 -17 -17 -17 -16 -16 -16 -16 -16 -16 -16 -16 -17 -17 -17 -17 -17 -17 -17 -17 -17 -17 -17 -17 -18 -17 -18 -18 -18 -18 -19 -18 -19 -19
-20 -20 -19 -19 -17 -18 -18 -18 -18 -18 -18 -18 -17 -17 -17 -17 -17 -17 -17 -17 -17 -17 -16 -17 -17 -17 -17 -17 -17 -18 -18 -18 -18 -18 -18 -18 -18 -18 -19 -19 -19 -20 -20
-24 -22 -21 -21 -21 -20 -19 -19 -18 -18 -18 -19 -18 -18 -17 -18 -18 -17 -17 -17 -17 -17 -17 -17 -17 -17 -17 -17 -18 -18 -18 -18 -18 -18 -19 -19 -19 -19 -20 -19 -20 -20 -21
-24 -24 -24 -23 -23 -22 -22 -21 -21 -18 -18 -19 -19 -20 -19 -18 -18 -18 -19 -19 -18 -17 -18 -18 -17 -17 -17 -17 -17 -17 -18 -18 -19 -19 -19 -19 -19 -19 -20 -21 -20 -20 -21
-24 -24 -24 -24 -23 -23 -23 -22 -22 -22 -20 -20 -19 -19 -19 -19 -19 -20 -20 -19 -19 -18 -18 -19 -18 -18 -18 -18 -18 -18 -18 -18 -18 -19 -19 -20 -19 -20 -21 -21 -21 -22 -22
-23 -24 -24 -23 -23 -22 -22 -23 -22 -22 -22 -22 -21 -20 -20 -19 -19 -20 -19 -19 -19 -19 -19 -19 -19 -18 -18 -18 -18 -18 -19 -19 -19 -20 -20 -20 -20 -21 -21 -22 -22 -22 -22
-24 -24 -23 -22 -22 -22 -22 -22 -23 -23 -23 -23 -22 -22 -21 -20 -19 -19 -19 -19 -19 -19 -19 -19 -19 -19 -19 -19 -19 -18 -18 -19 -19 -20 -20 -21 -21 -21 -22 -23 -23 -23 -23
-24 -24 -23 -23 -22 -22 -22 -22 -23 -23 -23 -23 -23 -23 -22 -21 -20 -19 -20 -20 -19 -20 -19 -19 -19 -19 -19 -19 -18 -18 -19 -19 -19 -21 -21 -21 -21 -22 -23 -23 -23 -23 -23
-24 -23 -23 -22 -22 -22 -22 -22 -23 -23 -24 -23 -23 -23 -22 -21 -21 -21 -20 -21 -20 -20 -20 -20 -19 -20 -19 -19 -19 -19 -19 -20 -21 -21 -22 -22 -23 -23 -23 -23 -23 -24 -24
-24 -23 -23 -23 -23 -23 -23 -23 -23 -23 -24 -24 -23 -23 -22 -22 -21 -21 -21 -21 -20 -20 -20 -20 -20 -20 -19 -19 -20 -20 -20 -21 -21 -22 -22 -23 -23 -23 -23 -23 -23 -24 -24
Height
5776 5773 5773 5774 5774 5775 5779 5783 5785 5786 5786 5788 5790 5792 5794 5795 5795 5793 5795 5797 5796 5798 5799 5800 5801 5802 5802 5803 5803 5804 5803 5803 5804 5805 5806 5806 5807 5807 5807 5808 5808 5809 5810
5768 5763 5764 5765 5766 5766 5769 5773 5774 5776 5778 5780 5782 5784 5785 5787 5788 5787 5788 5790 5791 5792 5793 5793 5794 5795 5796 5797 5797 5798 5798 5798 5799 5800 5800 5801 5801 5801 5802 5802 5803 5803 5804
5756 5754 5750 5751 5753 5754 5757 5759 5762 5767 5768 5771 5774 5775 5777 5778 5779 5780 5781 5784 5785 5786 5787 5786 5787 5789 5790 5791 5791 5792 5792 5793 5793 5794 5794 5793 5794 5795 5796 5796 5797 5798 5798
5749 5744 5742 5739 5740 5742 5745 5748 5752 5753 5756 5759 5762 5767 5769 5769 5770 5771 5773 5776 5777 5778 5780 5780 5780 5781 5784 5785 5785 5786 5786 5787 5788 5788 5788 5788 5788 5788 5789 5790 5791 5790 5790
5740 5736 5730 5723 5722 5729 5732 5732 5733 5739 5744 5747 5749 5755 5759 5760 5761 5762 5765 5768 5770 5770 5771 5772 5774 5775 5775 5778 5779 5780 5781 5782 5783 5783 5783 5783 5783 5783 5783 5784 5784 5785 5784
5730 5727 5723 5721 5719 5714 5723 5725 5711 5722 5729 5733 5735 5741 5747 5750 5751 5753 5756 5760 5763 5763 5764 5765 5767 5768 5768 5771 5772 5774 5776 5777 5778 5777 5778 5778 5779 5779 5779 5778 5778 5779 5779
5719 5717 5713 5711 5713 5714 5719 5715 5710 5709 5715 5719 5721 5725 5733 5737 5741 5744 5748 5751 5754 5755 5756 5757 5759 5760 5762 5762 5765 5767 5769 5771 5771 5771 5773 5772 5773 5773 5773 5773 5773 5774 5774
5706 5706 5704 5701 5703 5705 5707 5703 5702 5702 5697 5707 5710 5714 5719 5725 5729 5735 5739 5742 5745 5747 5748 5749 5752 5754 5756 5755 5758 5761 5762 5763 5764 5765 5766 5767 5768 5768 5768 5767 5767 5768 5768
5691 5691 5691 5689 5688 5690 5693 5690 5689 5689 5693 5696 5700 5704 5708 5713 5720 5724 5729 5733 5736 5738 5740 5741 5743 5746 5748 5748 5750 5752 5755 5757 5758 5759 5759 5759 5760 5760 5761 5762 5761 5762 5763
5677 5677 5679 5676 5677 5678 5683 5678 5678 5679 5683 5688 5686 5694 5698 5704 5708 5711 5718 5723 5727 5730 5731 5732 5735 5737 5739 5741 5742 5744 5748 5749 5750 5751 5753 5753 5754 5754 5754 5755 5755 5755 5755
5662 5662 5664 5663 5664 5667 5667 5673 5669 5670 5671 5675 5678 5684 5687 5693 5698 5703 5708 5713 5717 5719 5721 5724 5727 5730 5730 5732 5734 5736 5738 5740 5742 5744 5746 5746 5747 5748 5749 5748 5747 5747 5746
5648 5648 5649 5650 5650 5653 5656 5655 5654 5658 5660 5662 5667 5673 5674 5683 5689 5695 5698 5700 5705 5708 5712 5716 5719 5721 5722 5725 5726 5728 5731 5733 5735 5736 5738 5739 5739 5740 5740 5741 5740 5739 5739
5634 5632 5631 5635 5636 5640 5643 5640 5641 5647 5650 5652 5655 5658 5663 5671 5678 5682 5685 5690 5695 5699 5703 5707 5712 5715 5716 5717 5718 5720 5722 5725 5726 5727 5729 5731 5731 5730 5731 5731 5731 5731 5730
5616 5614 5616 5616 5619 5622 5628 5633 5633 5635 5638 5639 5643 5650 5654 5662 5663 5671 5677 5679 5684 5689 5694 5701 5703 5705 5707 5709 5710 5712 5713 5716 5717 5717 5719 5721 5722 5722 5722 5722 5722 5722 5721
5597 5597 5598 5599 5602 5602 5610 5615 5620 5617 5626 5630 5633 5640 5646 5648 5654 5659 5658 5667 5672 5678 5683 5688 5692 5694 5697 5699 5701 5702 5705 5707 5709 5709 5710 5712 5712 5712 5712 5712 5711 5711 5711
5573 5578 5581 5582 5583 5586 5591 5595 5600 5608 5612 5617 5621 5627 5630 5635 5639 5645 5648 5654 5656 5665 5670 5675 5679 5681 5685 5689 5691 5692 5695 5698 5699 5700 5702 5703 5703 5701 5701 5702 5701 5700 5701
5548 5553 5556 5555 5560 5565 5573 5576 5581 5587 5593 5599 5608 5611 5616 5624 5626 5632 5638 5644 5645 5650 5656 5661 5664 5669 5673 5678 5680 5682 5685 5687 5689 5690 5691 5692 5693 5691 5691 5690 5689 5690 5690
5521 5525 5530 5531 5535 5540 5548 5555 5562 5570 5576 5582 5588 5596 5600 5608 5611 5618 5627 5633 5636 5639 5645 5647 5651 5657 5661 5665 5667 5670 5673 5676 5677 5678 5680 5682 5682 5680 5680 5680 5679 5679 5680
5495 5499 5503 5508 5512 5513 5521 5529 5539 5546 5558 5564 5570 5578 5586 5595 5600 5604 5609 5617 5624 5628 5631 5637 5641 5644 5648 5652 5656 5658 5661 5664 5666 5668 5668 5670 5671 5670 5669 5670 5669 5668 5668
5486 5488 5488 5490 5494 5496 5499 5507 5515 5525 5531 5541 5551 5561 5569 5579 5586 5593 5595 5602 5609 5615 5619 5625 5630 5634 5637 5640 5642 5646 5648 5650 5652 5654 5655 5657 5657 5657 5657 5658 5657 5658 5659
5478 5477 5476 5476 5476 5480 5484 5490 5497 5503 5508 5517 5528 5541 5552 5561 5570 5577 5584 5589 5596 5602 5607 5612 5618 5621 5623 5629 5633 5635 5635 5635 5637 5640 5642 5644 5645 5646 5647 5647 5647 5647 5646
5469 5465 5459 5457 5459 5461 5467 5472 5479 5485 5493 5497 5507 5518 5531 5542 5550 5559 5569 5577 5583 5588 5593 5598 5603 5608 5612 5616 5620 5621 5621 5624 5625 5629 5631 5633 5636 5636 5637 5636 5637 5636 5637
5456 5450 5442 5439 5439 5444 5449 5455 5461 5468 5475 5482 5488 5497 5506 5521 5532 5542 5553 5562 5566 5573 5579 5585 5589 5593 5599 5603 5605 5607 5609 5612 5614 5616 5620 5622 5624 5625 5626 5626 5627 5626 5626
5445 5438 5429 5424 5423 5425 5428 5435 5445 5452 5460 5467 5473 5480 5488 5500 5513 5523 5533 5542 5551 5558 5564 5572 5576 5581 5585 5589 5591 5595 5598 5600 5602 5606 5608 5611 5614 5616 5616 5616 5616 5615 5613
5434 5425 5416 5410 5409 5409 5410 5419 5430 5439 5448 5455 5460 5465 5473 5484 5498 5509 5519 5527 5536 5543 5550 5555 5561 5568 5572 5577 5580 5582 5585 5589 5593 5595 5597 5601 5603 5606 5606 5604 5603 5602 5601
5422 5414 5404 5399 5396 5394 5397 5408 5420 5429 5436 5443 5449 5454 5462 5473 5480 5492 5502 5514 5523 5529 5535 5540 5548 5555 5564 5566 5569 5572 5575 5578 5581 5586 5590 5592 5594 5596 5595 5593 5592 5590 5588
Wind_Speed
56 55 52 49 47 43 43 47 50 47 39 36 35 35 33 31 29 30 26 23 24 24 21 20 20 19 20 21 21 23 25 24 21 22 22 23 25 25 25 24 24 23 24
54 59 57 54 51 46 46 47 45 49 43 40 38 37 35 35 33 31 29 26 25 26 24 22 22 22 22 23 24 26 27 25 24 24 26 28 26 24 26 26 25 25 25
52 59 59 58 55 53 50 50 50 49 47 43 40 39 37 36 37 35 31 29 27 27 26 24 23 24 24 25 25 28 28 27 23 26 29 27 27 28 26 27 27 29 31
48 49 49 57 60 56 53 53 55 56 51 48 43 41 40 39 40 38 35 30 29 28 28 26 24 24 25 25 25 26 26 25 24 26 24 23 24 24 30 31 31 29 29
46 44 50 44 48 61 55 59 53 60 56 48 47 44 43 42 42 42 39 33 31 29 29 29 26 26 26 26 23 23 23 24 26 24 24 23 21 24 24 23 23 24 24
44 45 43 44 42 44 49 55 58 52 60 62 55 48 47 45 46 44 39 35 32 31 31 30 28 24 24 25 22 20 19 19 22 22 21 19 23 23 24 25 26 27 27
43 46 45 43 44 45 44 49 56 52 56 56 51 52 51 49 47 45 40 37 35 34 32 31 27 24 23 21 22 24 27 25 23 23 23 24 27 27 28 29 29 28 29
46 44 47 50 47 48 45 45 51 57 55 48 54 58 53 50 47 43 41 37 38 36 34 32 28 24 23 22 23 24 24 25 26 26 27 27 28 29 27 25 25 26 26
45 44 49 48 51 50 45 49 42 45 57 58 54 57 58 49 43 41 41 39 39 38 36 32 28 26 26 23 24 25 25 26 27 26 26 25 22 21 22 23 22 24 26
48 47 52 49 49 46 42 47 45 37 49 54 46 52 53 49 44 43 41 40 39 39 38 34 30 28 27 25 25 23 24 24 23 22 22 20 20 22 24 24 23 26 29
54 52 52 54 52 46 47 46 51 47 45 53 54 52 44 48 47 44 41 37 39 40 39 36 32 30 27 25 26 26 22 23 21 20 21 22 24 28 28 27 28 28 33
60 56 56 57 59 53 40 45 50 44 40 49 48 52 49 43 45 41 38 39 41 42 42 39 34 31 28 27 26 27 24 25 25 24 25 25 28 27 28 29 30 30 33
62 62 65 62 62 61 57 47 45 45 48 42 49 49 49 44 45 45 46 46 42 43 43 41 34 30 29 31 29 28 28 29 28 27 29 28 27 27 27 29 30 29 31
69 67 69 70 66 63 57 57 55 55 46 45 42 56 48 54 38 50 47 45 44 42 41 39 36 34 35 35 32 32 32 32 32 32 32 33 30 30 29 31 33 33 36
69 69 70 71 72 72 64 58 52 44 42 43 45 48 54 47 54 54 58 51 46 44 41 42 40 38 39 39 39 37 35 34 36 35 36 32 32 30 30 33 35 37 39
79 70 77 80 77 78 68 63 64 66 68 61 51 54 50 58 49 57 52 49 50 46 47 44 42 44 45 43 44 43 37 38 38 40 39 35 31 28 31 31 34 37 42
82 81 81 80 79 80 68 67 75 68 68 70 54 57 62 56 43 52 55 54 57 51 55 51 50 51 50 48 47 46 42 41 40 42 44 43 40 34 34 35 37 40 43
88 88 88 90 88 78 84 71 60 65 64 61 57 60 60 57 55 50 53 50 51 54 55 52 52 51 53 53 51 51 46 46 44 44 45 39 38 34 37 39 39 41 44
50 67 77 85 88 82 81 80 78 67 74 61 62 66 65 62 54 51 56 48 51 53 54 55 55 53 53 52 52 53 52 47 48 48 50 48 37 37 37 39 40 40 43
32 37 41 45 50 53 63 71 71 85 70 65 58 61 61 62 55 49 50 50 49 55 42 42 53 53 52 48 52 52 53 55 51 53 52 47 39 40 38 38 40 42 39
30 35 42 45 50 50 52 55 54 60 79 85 82 77 66 67 67 61 54 57 55 54 49 52 52 51 44 42 43 45 59 58 59 58 50 49 45 40 38 40 39 36 35
31 44 49 49 56 56 55 55 52 53 54 59 64 68 71 73 76 74 65 62 64 60 54 54 55 54 50 49 46 46 45 65 59 50 47 44 42 39 39 36 36 34 35
32 47 40 41 48 56 58 56 55 55 52 55 55 56 64 70 77 78 77 73 72 67 62 52 53 51 55 52 51 49 44 46 48 49 44 41 42 38 36 33 33 33 39
38 45 39 38 40 44 54 58 57 53 51 50 51 50 52 54 62 70 65 68 72 66 62 61 55 57 52 49 53 48 45 42 44 42 41 41 39 34 32 32 33 39 42
39 46 39 36 36 42 44 51 49 43 41 42 39 39 46 52 49 49 55 58 61 65 70 63 54 45 50 40 39 34 35 35 40 43 42 38 31 31 30 33 37 40 40
43 46 40 28 27 25 33 42 42 39 40 41 37 36 41 56 56 55 43 52 53 52 63 65 49 56 53 47 50 43 35 40 42 42 34 31 29 31 33 36 38 39 40
Wind_Direction
282 275 273 272 268 261 263 263 257 257 258 258 255 253 250 248 244 246 246 249 254 259 261 262 265 266 271 271 268 267 274 270 267 270 273 278 277 275 273 270 269 268 268
286 283 276 271 268 263 263 262 261 249 255 254 253 252 249 248 247 244 244 244 248 254 255 256 260 262 264 264 266 269 271 263 263 270 275 278 274 270 270 269 270 271 271
286 280 274 268 262 261 259 255 257 258 250 255 253 251 248 247 245 245 244 243 246 250 253 251 258 267 267 264 264 270 268 259 259 272 275 272 271 264 266 269 273 277 277
287 285 284 262 258 258 257 253 256 255 243 247 247 247 244 241 243 244 246 241 243 246 250 255 256 259 265 264 263 268 266 248 265 277 282 278 274 270 269 272 277 278 273
279 278 281 286 278 250 250 255 252 254 245 241 239 244 244 241 242 243 245 243 241 243 245 251 255 257 258 260 261 259 257 256 267 273 280 280 271 274 272 267 272 275 275
279 273 270 280 279 259 268 275 245 236 249 237 237 239 240 239 240 242 241 244 242 241 245 249 253 258 259 260 261 259 248 259 269 271 275 275 273 277 274 272 274 275 275
267 271 275 275 277 271 277 276 245 238 239 238 231 231 235 236 238 242 241 241 241 242 241 244 243 242 245 247 254 254 256 265 264 263 267 274 276 274 276 275 275 279 282
263 266 271 276 276 277 277 277 269 258 234 248 229 236 232 234 238 240 241 240 241 239 237 237 237 236 239 238 248 253 256 258 254 259 270 276 281 281 279 281 282 280 279
260 261 265 272 274 279 279 273 269 257 250 252 233 234 228 229 234 236 238 237 240 240 236 232 231 234 237 239 242 247 253 255 257 264 267 272 273 275 281 282 281 283 287
262 260 265 268 274 281 275 278 278 257 250 243 241 236 231 229 226 229 231 235 239 239 235 231 229 232 239 242 241 240 249 253 258 262 266 261 268 272 276 286 292 292 288
260 259 262 266 268 269 271 273 263 247 255 255 244 230 227 230 226 230 230 235 239 236 233 230 229 232 240 241 243 241 244 246 248 258 266 267 271 276 280 288 289 288 286
262 262 261 260 262 261 273 252 264 274 253 245 228 235 234 218 228 227 230 231 233 234 234 231 230 233 239 245 249 244 242 248 249 256 267 271 275 282 284 285 290 294 295
265 269 262 257 258 259 260 266 272 273 264 257 234 234 227 225 223 225 231 232 230 234 233 233 234 240 243 244 246 246 246 254 255 265 271 276 273 273 281 288 291 294 299
264 266 260 260 259 260 259 259 273 263 261 264 247 240 228 221 216 227 229 233 233 235 238 241 241 241 245 247 250 254 255 259 261 266 274 273 271 274 283 290 289 295 299
261 262 260 261 261 265 264 264 259 258 255 265 262 251 234 218 222 226 235 229 236 235 238 240 240 243 247 250 251 253 256 261 262 265 273 273 275 273 279 286 293 290 289
259 257 261 262 262 262 267 257 259 260 261 264 262 258 230 233 232 228 228 239 231 237 239 240 240 242 245 249 254 256 256 262 263 267 274 278 275 272 279 290 296 297 297
255 254 249 244 236 253 251 244 251 260 258 255 254 261 254 234 226 221 235 231 233 232 238 237 238 241 244 246 251 256 258 261 267 268 272 279 276 272 280 284 290 292 293
256 257 256 255 245 250 243 244 238 244 248 242 244 247 252 256 246 239 226 229 232 239 235 237 240 244 242 245 248 252 255 259 264 269 271 270 269 274 279 283 288 288 286
262 260 261 257 262 265 251 246 244 243 239 237 241 248 252 251 249 248 248 239 237 243 239 242 244 250 249 248 249 253 257 257 260 264 262 264 272 272 273 282 286 285 279
272 267 268 260 257 255 259 261 258 243 236 238 232 238 244 249 244 249 262 262 256 242 250 246 244 247 257 251 253 259 257 258 257 253 255 258 261 265 269 275 279 281 277
273 284 285 270 263 255 250 249 250 253 258 257 249 242 240 249 251 251 253 260 256 251 246 261 254 247 252 258 261 271 260 251 252 253 252 255 257 261 268 273 274 270 276
281 299 286 267 262 261 254 252 248 245 244 247 249 249 249 248 250 251 253 256 257 256 250 257 256 255 258 259 262 268 270 260 252 250 252 260 260 260 266 265 269 276 284
298 310 284 274 260 253 250 249 248 245 244 242 244 244 243 236 240 247 249 252 254 252 249 248 250 253 257 260 266 270 271 267 258 258 257 252 253 258 261 263 273 282 282
308 312 298 277 264 260 250 246 247 244 245 236 236 236 235 233 233 238 240 239 245 244 245 248 253 254 255 258 261 263 264 265 264 253 248 249 253 252 257 268 278 282 285
318 318 308 283 268 261 246 234 238 239 234 235 230 234 221 209 211 220 229 239 243 241 245 238 246 247 249 260 259 263 275 258 251 248 244 246 246 254 265 275 279 283 286
317 321 314 278 273 261 232 227 230 234 239 236 235 220 213 216 214 205 217 221 223 234 239 238 242 251 252 259 259 269 255 243 242 243 240 242 249 265 272 278 281 285 287